Regional Weather Roundup
Issued by NWS Mt. Holly, NJ

Home | Current Version | Previous Version | Text Only | Print | Product List | Glossary On
Versions: 1 2 3 4 5 6 7 8 9 10 11 12 13 14 15 16 17 18 19 20 21 22 23 24 25 26 27 28 29 30 31 32 33 34 35 36 37 38 39 40 41 42 43 44 45 46 47 48 49 50
000
ASUS41 KPHI 012012
RWRPHI

REGIONAL WEATHER ROUNDUP
NATIONAL WEATHER SERVICE MOUNT HOLLY NJ
400 PM EDT SAT OCT 01 2016

NOTE:  "FAIR" INDICATES FEW OR NO CLOUDS BELOW 12,000 FEET WITH NO
SIGNIFICANT WEATHER AND/OR OBSTRUCTIONS TO VISIBILITY.

 * = STATION DOES NOT REPORT PRECIPITATION (E.G. RAIN, SNOW, ETC.)
        OR FOG.

NJZ015>026-012100-
SOUTHERN NEW JERSEY

CITY           SKY/WX    TMP DP  RH WIND       PRES   REMARKS
POMONA         CLOUDY    64  63  96 NE15      30.09F FOG
WILDWOOD*      LGT RAIN  65  65 100 NE12      30.09S FOG
MILLVILLE      CLOUDY    66  66 100 E15       30.09F
WRIGHTSTOWN    CLOUDY    63  60  92 NE8       30.10F
MOUNT HOLLY    CLOUDY    63  60  90 NE7       30.12F
TRENTON        LGT RAIN  61  59  93 E10       30.13F

$$
NJZ001>014-012100-
NORTHERN NEW JERSEY

CITY           SKY/WX    TMP DP  RH WIND       PRES   REMARKS
SUSSEX         CLOUDY    58  57  97 NE7       30.17F
ANDOVER*         N/A     59  56  89 NE5       30.16F
MORRISTOWN     CLOUDY    61  59  94 E8        30.17S
NEWARK         CLOUDY    63  57  81 NE12      30.15F
TETERBORO      CLOUDY    62  56  80 NE7       30.16S
CALDWELL       CLOUDY    62  57  83 E7        30.16F
SOMERVILLE     CLOUDY    62  57  83 E5        30.14F
ALLAIRE*       CLOUDY    62  60  93 NE12      30.15F
TOMS RIVER*    CLOUDY    62  61  96 NE12      30.13F FOG

$$
PAZ043-044-047-054-055-060>062-066>071-012100-
EASTERN PENNSYLVANIA

CITY           SKY/WX    TMP DP  RH WIND       PRES   REMARKS
PHILADELPHIA   CLOUDY    64  60  87 E14       30.11F
NORTH PHILA    CLOUDY    64  60  87 E9        30.14F
BLUE BELL*     CLOUDY    59  59 100 NE9       30.11F
DOYLESTOWN     CLOUDY    61  59  93 VRB6      30.12F
QUAKERTOWN*    CLOUDY    59  57  94 E8        30.14F
PERKASIE*      CLOUDY    59  59 100 E7        30.14F
POTTSTOWN      CLOUDY    61  58  90 VRB6      30.12F
LANCASTER      CLOUDY    61  61 100 E12       30.10F
COATESVILLE    FOG       59  59 100 E14G21    30.12S VSB 1
READING        CLOUDY    61  57  87 E8        30.10F
ALLENTOWN      CLOUDY    62  56  80 NE10      30.13F
MOUNT POCONO   FOG       54  54 100 E13       30.15F VSB 1/4
HAZLETON       CLOUDY    59  55  88 E8        30.14F
LEHIGHTON        N/A     61  55  82 NE6       30.14F
WILKES BARRE   CLOUDY    63  57  81 NE9       30.12F

$$
DEZALL-MDZ008-012-015-019-020-012100-
DELAWARE AND EASTERN MARYLAND

CITY           SKY/WX    TMP DP  RH WIND       PRES   REMARKS
WILMINGTON     LGT RAIN  64  60  87 NE10      30.10F
DOVER          CLOUDY    66  66 100 NE16      30.05F
GEORGETOWN     FOG       68  32  26 E10       30.06F VSB 1
EASTON         FOG       72  66  83 E7        30.10R VSB 1
PATUXENT       CLOUDY    73  69  87 SE8       30.03F
OCEAN CITY     MOSUNNY   74  69  85 SE6       30.05F
WALLOPS ISLAND MOSUNNY   74  72  93 S8        30.05F
SALISBURY      PTSUNNY   74  70  87 E9        30.04F

$$
PAZ001-021-NYZ056-072-MDZ011-DCZ001-012100-
OTHER NEARBY LOCATIONS

CITY           SKY/WX    TMP DP  RH WIND       PRES   REMARKS
HARRISBURG     RAIN      59  59 100 CALM      30.11R FOG
STATE COLLEGE  CLOUDY    59  57  94 CALM      30.11F FOG
WILLIAMSPORT   HVY RAIN  59  59 100 W6        30.10R VSB 1
BINGHAMTON     CLOUDY    60  56  86 E9        30.13F
NEW YORK CITY  CLOUDY    62  56  80 VRB7      30.19F
BALTIMORE      DRIZZLE   63  61  93 NE7       30.08F FOG
WASHINGTON DC  CLOUDY    66  65  96 N9        30.07F FOG

$$



USA.gov is the U.S. government's official web portal to all federal, state and local government web resources and services.